Regional Weather Roundup
Issued by NWS New Orleans/Baton Rouge, LA

Home | Current Version | Previous Version | Text Only | Print | Product List | Glossary On
Versions: 1 2 3 4 5 6 7 8 9 10 11 12 13 14 15 16 17 18 19 20 21 22 23 24 25 26 27 28 29 30 31 32 33 34 35 36 37 38 39 40 41 42 43 44 45 46 47 48 49 50
545
ASUS44 KLIX 251913
RWRLIX
NEW ORLEANS REGIONAL WEATHER ROUNDUP
NATIONAL WEATHER SERVICE NEW ORLEANS LA
200 PM CDT THU MAY 25 2017

NOTE: "FAIR" INDICATES FEW OR NO CLOUDS BELOW 12,000 FEET WITH NO
      SIGNIFICANT WEATHER AND/OR OBSTRUCTIONS TO VISIBILITY.
      SKY/WX - SKY CONDITION AND SIGNIFICANT WEATHER.
      TMP - AIR TEMPERATURE.     DP    - DEWPOINT TEMPERATURE.
      RH  - RELATIVE HUMIDITY.   PRES  - PRESSURE.
      HI  - HEAT INDEX.          WCI   - WIND CHILL INDEX.

*  THESE STATIONS ARE NOT NWS OR FAA STATIONS AND ARE NOT UNDER
   NWS QUALITY CONTROL.

LAZ038-040-048-061>063-065>067-069-252000-
SOUTHEAST LOUISIANA

CITY           SKY/WX    TMP DP  RH WIND       PRES   REMARKS
N.O. INTL ARPT MOSUNNY   81  55  40 W7        29.89F
N.O. LAKEFRONT SUNNY     80  57  45 N10       29.90F
N.O. DOWNTOWN*   N/A     80  54  40 VRB7        N/A
RESERVE*         N/A     83  54  36 W3        29.89F
SLIDELL        SUNNY     78  52  40 SW6       29.89F
BATON ROUGE    SUNNY     81  54  39 W9        29.87F
BOOTHVILLE     SUNNY     78  53  41 W9        29.91S
BELLE CHASSE   SUNNY     79  57  46 SW6       29.89F
BOGALUSA*        N/A     80  52  37 SW6       29.90F
GALLIANO*      CLEAR     80  52  37 SW8       29.90S
NEW ROADS*       N/A     80  58  47 SW10      29.88F
GONZALES*        N/A     81  55  41 SW7       29.88F
HAMMOND*       SUNNY     82  48  30 W6        29.89F
HOUMA*         SUNNY     82  54  36 W6        29.90S
PORT FOURCHON* CLEAR     79  50  36 VRB6G13   29.91F

$$

MSZ070-080>082-252000-
SOUTHERN MISSISSIPPI

CITY           SKY/WX    TMP DP  RH WIND       PRES   REMARKS
MCCOMB         SUNNY     79  51  37 VRB5      29.89F
GULFPORT       SUNNY     80  53  39 VRB7      29.88S
BILOXI         SUNNY     79  54  41 SW12      29.88F
PASCAGOULA     SUNNY     81  48  31 W12G17    29.88S
STENNIS ARPT*  SUNNY     79  54  41 NW12      29.89F

$$

COASTAL OBSERVATIONS
LAKE AND NEARSHORE STATIONS

STATION/POSITION TIME  TEMP    WIND        PRES    WAVE
                       AIR SEA DIR/SP/G            HT/PER
                 (UTC) (F)     (DEG/KT/KT) (MB)    (FT/S)
PASCAGOULA       1848   76     250/ 10/ 14 1011.7
WAVELAND YACHT   1848   77 80  320/  9/ 12 1011.9
GRAND ISLE       1848   77 76  280/  6/  8 1012.7
SOUTHWEST PASS   1848          320/  3/  7   N/A
NEW CANAL        1848   76 78  350/  8/ 10 1012.2
SHELL BEACH      1848   75 79  350/  9/ 11 1012.3

OFFSHORE STATIONS

STATION/POSITION TIME  TEMP    WIND        PRES    WAVE
                       AIR SEA DIR/SP/G            HT/PER
                 (UTC) (F)     (DEG/KT/KT) (MB)    (FT/S)
64 S DAUPHIN ISL 1850   74 78  290/ 12/ 14 1012.6    3/ 7

$$





USA.gov is the U.S. government's official web portal to all federal, state and local government web resources and services.